Time,TemperatureF,DewpointF,PressureIn,WindDirection,WindDirectionDegrees,WindSpeedMPH,WindSpeedGustMPH,Humidity,HourlyPrecipIn,Conditions,Clouds,dailyrainin,SoftwareType,DateUTC
2013-04-22 00:01:00,41.2,37.9,30.35,West,279,0.0,15.0,88,0.00,,,0.00,Wunderground v.1.15,2013-04-22 07:01:00,
2013-04-22 00:07:00,41.0,37.7,30.35,West,279,0.0,15.0,88,0.00,,,0.00,Wunderground v.1.15,2013-04-22 07:07:00,
2013-04-22 00:12:00,40.7,37.7,30.35,West,279,0.0,0.0,89,0.00,,,0.00,Wunderground v.1.15,2013-04-22 07:12:00,
2013-04-22 00:18:00,40.5,37.5,30.35,NNE,12,0.0,4.0,89,0.00,,,0.00,Wunderground v.1.15,2013-04-22 07:18:00,
2013-04-22 00:23:00,40.2,37.2,30.36,North,10,0.0,0.0,89,0.00,,,0.00,Wunderground v.1.15,2013-04-22 07:23:00,
2013-04-22 00:29:00,40.1,37.4,30.36,North,10,0.0,0.0,90,0.00,,,0.00,Wunderground v.1.15,2013-04-22 07:29:00,
2013-04-22 00:34:00,40.2,37.8,30.36,North,10,0.0,0.0,91,0.00,,,0.00,Wunderground v.1.15,2013-04-22 07:34:00,
2013-04-22 00:39:00,40.3,37.9,30.36,North,10,0.0,0.0,91,0.00,,,0.00,Wunderground v.1.15,2013-04-22 07:39:00,
2013-04-22 00:45:00,40.2,37.5,30.37,North,10,0.0,0.0,90,0.00,,,0.00,Wunderground v.1.15,2013-04-22 07:45:00,
2013-04-22 00:50:00,40.1,37.7,30.37,North,10,0.0,0.0,91,0.00,,,0.00,Wunderground v.1.15,2013-04-22 07:50:00,
2013-04-22 00:55:00,39.8,37.1,30.37,North,10,0.0,0.0,90,0.00,,,0.00,Wunderground v.1.15,2013-04-22 07:55:00,
2013-04-22 01:01:00,39.6,36.9,30.37,North,10,0.0,1.0,90,0.00,,,0.00,Wunderground v.1.15,2013-04-22 08:01:00,
2013-04-22 01:06:00,39.6,37.2,30.38,North,10,0.0,1.0,91,0.00,,,0.00,Wunderground v.1.15,2013-04-22 08:06:00,
2013-04-22 01:11:00,39.5,37.1,30.38,WSW,257,1.0,2.0,91,0.00,,,0.00,Wunderground v.1.15,2013-04-22 08:11:00,
2013-04-22 01:17:00,39.5,37.1,30.38,WSW,257,1.0,2.0,91,0.00,,,0.00,Wunderground v.1.15,2013-04-22 08:17:00,
2013-04-22 01:22:00,39.5,37.1,30.38,WSW,257,0.0,1.0,91,0.00,,,0.00,Wunderground v.1.15,2013-04-22 08:22:00,
2013-04-22 01:27:00,39.4,37.0,30.38,WSW,257,0.0,1.0,91,0.00,,,0.00,Wunderground v.1.15,2013-04-22 08:27:00,
2013-04-22 01:33:00,39.3,36.9,30.38,WSW,251,1.0,2.0,91,0.00,,,0.00,Wunderground v.1.15,2013-04-22 08:33:00,
2013-04-22 01:38:00,39.3,37.2,30.38,WSW,251,1.0,3.0,92,0.00,,,0.00,Wunderground v.1.15,2013-04-22 08:38:00,
2013-04-22 01:43:00,39.4,37.3,30.38,SW,215,2.0,5.0,92,0.00,,,0.00,Wunderground v.1.15,2013-04-22 08:43:00,
2013-04-22 01:49:00,39.5,37.4,30.38,SW,215,2.0,5.0,92,0.00,,,0.00,Wunderground v.1.15,2013-04-22 08:49:00,
2013-04-22 01:54:00,39.4,37.3,30.38,SW,215,1.0,3.0,92,0.00,,,0.00,Wunderground v.1.15,2013-04-22 08:54:00,
2013-04-22 01:59:00,39.4,37.3,30.38,SW,215,1.0,3.0,92,0.00,,,0.00,Wunderground v.1.15,2013-04-22 08:59:00,
2013-04-22 02:05:00,39.4,37.3,30.38,SW,215,0.0,2.0,92,0.00,,,0.00,Wunderground v.1.15,2013-04-22 09:05:00,
2013-04-22 02:10:00,39.4,37.3,30.38,SW,215,1.0,1.0,92,0.00,,,0.00,Wunderground v.1.15,2013-04-22 09:10:00,
2013-04-22 02:15:00,39.2,37.1,30.39,SW,215,1.0,2.0,92,0.00,,,0.00,Wunderground v.1.15,2013-04-22 09:15:00,
2013-04-22 02:20:00,39.0,36.9,30.39,SW,215,0.0,1.0,92,0.00,,,0.00,Wunderground v.1.15,2013-04-22 09:20:00,
2013-04-22 02:26:00,38.7,36.6,30.39,SW,215,0.0,1.0,92,0.00,,,0.00,Wunderground v.1.15,2013-04-22 09:26:00,
2013-04-22 02:31:00,38.5,36.4,30.39,SW,215,0.0,1.0,92,0.00,,,0.00,Wunderground v.1.15,2013-04-22 09:31:00,
2013-04-22 02:37:00,38.3,36.2,30.38,SW,215,1.0,2.0,92,0.00,,,0.00,Wunderground v.1.15,2013-04-22 09:37:00,
2013-04-22 02:42:00,38.2,36.1,30.38,SW,215,1.0,1.0,92,0.00,,,0.00,Wunderground v.1.15,2013-04-22 09:42:00,
2013-04-22 02:47:00,38.2,36.1,30.38,SW,215,1.0,2.0,92,0.00,,,0.00,Wunderground v.1.15,2013-04-22 09:47:00,
2013-04-22 02:53:00,38.3,36.5,30.38,WNW,302,1.0,3.0,93,0.00,,,0.00,Wunderground v.1.15,2013-04-22 09:53:00,
2013-04-22 02:58:00,38.5,36.7,30.38,WNW,302,1.0,3.0,93,0.00,,,0.00,Wunderground v.1.15,2013-04-22 09:58:00,
2013-04-22 03:03:00,38.6,36.8,30.38,WNW,302,0.0,1.0,93,0.00,,,0.00,Wunderground v.1.15,2013-04-22 10:03:00,
2013-04-22 03:08:00,38.5,36.7,30.38,WNW,302,1.0,2.0,93,0.00,,,0.00,Wunderground v.1.15,2013-04-22 10:08:00,
2013-04-22 03:14:00,38.3,36.2,30.39,NE,49,1.0,5.0,92,0.00,,,0.00,Wunderground v.1.15,2013-04-22 10:14:00,
2013-04-22 03:19:00,38.1,36.3,30.39,NE,49,1.0,5.0,93,0.00,,,0.00,Wunderground v.1.15,2013-04-22 10:19:00,
2013-04-22 03:25:00,38.1,36.3,30.39,NE,49,0.0,2.0,93,0.00,,,0.00,Wunderground v.1.15,2013-04-22 10:25:00,
2013-04-22 03:30:00,37.9,35.8,30.39,NE,49,0.0,1.0,92,0.00,,,0.00,Wunderground v.1.15,2013-04-22 10:30:00,
2013-04-22 03:35:00,37.7,35.6,30.39,NE,49,0.0,2.0,92,0.00,,,0.00,Wunderground v.1.15,2013-04-22 10:35:00,
2013-04-22 03:41:00,37.6,35.5,30.39,NE,49,0.0,1.0,92,0.00,,,0.00,Wunderground v.1.15,2013-04-22 10:41:00,
2013-04-22 03:46:00,37.5,35.4,30.39,NE,49,0.0,1.0,92,0.00,,,0.00,Wunderground v.1.15,2013-04-22 10:46:00,
2013-04-22 03:51:00,37.7,35.9,30.40,ENE,62,0.0,1.0,93,0.00,,,0.00,Wunderground v.1.15,2013-04-22 10:51:00,
2013-04-22 03:57:00,37.8,36.0,30.40,ENE,67,0.0,1.0,93,0.00,,,0.00,Wunderground v.1.15,2013-04-22 10:57:00,
2013-04-22 04:02:00,38.0,36.2,30.40,ENE,67,0.0,2.0,93,0.00,,,0.00,Wunderground v.1.15,2013-04-22 11:02:00,
2013-04-22 04:08:00,38.9,37.0,30.40,NE,46,1.0,3.0,93,0.00,,,0.00,Wunderground v.1.15,2013-04-22 11:08:00,
2013-04-22 04:13:00,39.4,37.3,30.40,NE,55,2.0,4.0,92,0.00,,,0.00,Wunderground v.1.15,2013-04-22 11:13:00,
2013-04-22 04:18:00,40.1,37.7,30.41,NE,36,3.0,5.0,91,0.00,,,0.00,Wunderground v.1.15,2013-04-22 11:18:00,
2013-04-22 04:23:00,40.6,37.6,30.41,ENE,74,3.0,4.0,89,0.00,,,0.00,Wunderground v.1.15,2013-04-22 11:23:00,
2013-04-22 04:29:00,40.7,37.4,30.41,ENE,62,3.0,4.0,88,0.00,,,0.00,Wunderground v.1.15,2013-04-22 11:29:00,
2013-04-22 04:34:00,40.6,37.3,30.41,ENE,60,2.0,2.0,88,0.00,,,0.00,Wunderground v.1.15,2013-04-22 11:34:00,
2013-04-22 04:40:00,40.5,37.2,30.42,ENE,62,1.0,2.0,88,0.00,,,0.00,Wunderground v.1.15,2013-04-22 11:40:00,
2013-04-22 04:45:00,40.7,37.4,30.42,ENE,62,1.0,2.0,88,0.00,,,0.00,Wunderground v.1.15,2013-04-22 11:45:00,
2013-04-22 04:50:00,40.6,37.3,30.42,East,92,1.0,1.0,88,0.00,,,0.00,Wunderground v.1.15,2013-04-22 11:50:00,
2013-04-22 04:56:00,40.8,37.5,30.42,ENE,63,1.0,5.0,88,0.00,,,0.00,Wunderground v.1.15,2013-04-22 11:56:00,
2013-04-22 05:01:00,40.8,37.2,30.42,ENE,64,2.0,2.0,87,0.00,,,0.00,Wunderground v.1.15,2013-04-22 12:01:00,
2013-04-22 05:06:00,40.7,37.1,30.42,ESE,118,1.0,2.0,87,0.00,,,0.00,Wunderground v.1.15,2013-04-22 12:06:00,
2013-04-22 05:11:00,40.5,36.9,30.42,East,94,1.0,2.0,87,0.00,,,0.00,Wunderground v.1.15,2013-04-22 12:11:00,
2013-04-22 05:17:00,40.3,37.0,30.42,SE,128,2.0,2.0,88,0.00,,,0.00,Wunderground v.1.15,2013-04-22 12:17:00,
2013-04-22 05:22:00,40.2,36.9,30.42,SE,128,2.0,2.0,88,0.00,,,0.00,Wunderground v.1.15,2013-04-22 12:22:00,
2013-04-22 05:28:00,40.1,36.8,30.42,ESE,106,1.0,3.0,88,0.00,,,0.00,Wunderground v.1.15,2013-04-22 12:28:00,
2013-04-22 05:33:00,39.9,36.6,30.43,ESE,106,1.0,1.0,88,0.00,,,0.00,Wunderground v.1.15,2013-04-22 12:33:00,
2013-04-22 05:38:00,39.6,36.3,30.43,ESE,106,0.0,1.0,88,0.00,,,0.00,Wunderground v.1.15,2013-04-22 12:38:00,
2013-04-22 05:44:00,39.3,36.0,30.43,ESE,109,0.0,1.0,88,0.00,,,0.00,Wunderground v.1.15,2013-04-22 12:44:00,
2013-04-22 05:49:00,39.2,36.2,30.43,ESE,109,1.0,3.0,89,0.00,,,0.00,Wunderground v.1.15,2013-04-22 12:49:00,
2013-04-22 05:54:00,39.3,36.3,30.43,East,90,1.0,2.0,89,0.00,,,0.00,Wunderground v.1.15,2013-04-22 12:54:00,
2013-04-22 06:00:00,39.5,36.5,30.43,ENE,72,2.0,2.0,89,0.00,,,0.00,Wunderground v.1.15,2013-04-22 13:00:00,
2013-04-22 06:05:00,39.5,36.2,30.43,East,86,1.0,2.0,88,0.00,,,0.00,Wunderground v.1.15,2013-04-22 13:05:00,
2013-04-22 06:11:00,39.6,36.6,30.43,NE,55,2.0,4.0,89,0.00,,,0.00,Wunderground v.1.15,2013-04-22 13:11:00,
2013-04-22 06:17:00,39.7,36.7,30.43,ENE,65,3.0,4.0,89,0.00,,,0.00,Wunderground v.1.15,2013-04-22 13:17:00,
2013-04-22 06:22:00,39.5,36.2,30.44,East,92,2.0,5.0,88,0.00,,,0.00,Wunderground v.1.15,2013-04-22 13:22:00,
2013-04-22 06:27:00,39.4,36.1,30.44,ENE,65,2.0,5.0,88,0.00,,,0.00,Wunderground v.1.15,2013-04-22 13:27:00,
2013-04-22 06:33:00,39.4,36.4,30.44,ENE,67,2.0,3.0,89,0.00,,,0.00,Wunderground v.1.15,2013-04-22 13:33:00,
2013-04-22 06:38:00,39.3,36.0,30.44,ENE,67,1.0,3.0,88,0.00,,,0.00,Wunderground v.1.15,2013-04-22 13:38:00,
2013-04-22 06:43:00,39.3,36.3,30.44,East,84,1.0,3.0,89,0.00,,,0.00,Wunderground v.1.15,2013-04-22 13:43:00,
2013-04-22 06:49:00,39.3,36.3,30.44,SSW,198,1.0,3.0,89,0.00,,,0.00,Wunderground v.1.15,2013-04-22 13:49:00,
2013-04-22 06:54:00,39.5,36.5,30.44,SE,146,1.0,2.0,89,0.00,,,0.00,Wunderground v.1.15,2013-04-22 13:54:00,
2013-04-22 06:59:00,39.9,36.9,30.45,SSE,158,1.0,3.0,89,0.00,,,0.00,Wunderground v.1.15,2013-04-22 13:59:00,
2013-04-22 07:05:00,40.6,37.6,30.45,SE,140,1.0,4.0,89,0.00,,,0.00,Wunderground v.1.15,2013-04-22 14:05:00,
2013-04-22 07:10:00,41.5,38.5,30.45,SE,139,1.0,1.0,89,0.00,,,0.00,Wunderground v.1.15,2013-04-22 14:10:00,
2013-04-22 07:15:00,42.5,39.2,30.46,SE,139,0.0,4.0,88,0.00,,,0.00,Wunderground v.1.15,2013-04-22 14:15:00,
2013-04-22 07:21:00,43.4,39.2,30.47,SE,136,0.0,4.0,85,0.00,,,0.00,Wunderground v.1.15,2013-04-22 14:21:00,
2013-04-22 07:26:00,44.1,39.6,30.46,SE,136,0.0,4.0,84,0.00,,,0.00,Wunderground v.1.15,2013-04-22 14:26:00,
2013-04-22 07:32:00,45.0,40.8,30.47,SE,136,0.0,4.0,85,0.00,,,0.00,Wunderground v.1.15,2013-04-22 14:32:00,
2013-04-22 07:37:00,46.1,40.6,30.47,SE,136,0.0,4.0,81,0.00,,,0.00,Wunderground v.1.15,2013-04-22 14:37:00,
2013-04-22 07:42:00,46.6,40.8,30.47,SE,136,0.0,4.0,80,0.00,,,0.00,Wunderground v.1.15,2013-04-22 14:42:00,
2013-04-22 07:47:00,47.5,42.0,30.47,SE,136,0.0,4.0,81,0.00,,,0.00,Wunderground v.1.15,2013-04-22 14:47:00,
2013-04-22 07:53:00,48.5,40.6,30.47,SE,136,0.0,4.0,74,0.00,,,0.00,Wunderground v.1.15,2013-04-22 14:53:00,
2013-04-22 07:58:00,49.2,41.3,30.47,SE,136,0.0,4.0,74,0.00,,,0.00,Wunderground v.1.15,2013-04-22 14:58:00,
2013-04-22 08:03:00,49.8,42.5,30.47,SE,136,0.0,4.0,76,0.00,,,0.00,Wunderground v.1.15,2013-04-22 15:03:00,
2013-04-22 08:09:00,49.4,40.7,30.47,SE,136,0.0,4.0,72,0.00,,,0.00,Wunderground v.1.15,2013-04-22 15:09:00,
2013-04-22 08:14:00,49.8,42.2,30.47,SE,136,0.0,4.0,75,0.00,,,0.00,Wunderground v.1.15,2013-04-22 15:14:00,
2013-04-22 08:20:00,50.7,42.7,30.47,SE,139,0.0,4.0,74,0.00,,,0.00,Wunderground v.1.15,2013-04-22 15:20:00,
2013-04-22 08:25:00,51.8,43.1,30.47,SE,144,1.0,4.0,72,0.00,,,0.00,Wunderground v.1.15,2013-04-22 15:25:00,
2013-04-22 08:30:00,52.2,42.0,30.47,South,172,1.0,1.0,68,0.00,,,0.00,Wunderground v.1.15,2013-04-22 15:30:00,
2013-04-22 08:35:00,51.4,41.6,30.47,East,96,1.0,4.0,69,0.00,,,0.00,Wunderground v.1.15,2013-04-22 15:35:00,
2013-04-22 08:41:00,50.0,41.3,30.47,East,94,2.0,4.0,72,0.00,,,0.00,Wunderground v.1.15,2013-04-22 15:41:00,
2013-04-22 08:46:00,49.5,41.2,30.47,ENE,69,2.0,4.0,73,0.00,,,0.00,Wunderground v.1.15,2013-04-22 15:46:00,
2013-04-22 08:51:00,50.1,41.8,30.47,NE,51,2.0,6.0,73,0.00,,,0.00,Wunderground v.1.15,2013-04-22 15:51:00,
2013-04-22 08:57:00,49.7,41.7,30.47,NE,44,3.0,6.0,74,0.00,,,0.00,Wunderground v.1.15,2013-04-22 15:57:00,
2013-04-22 09:02:00,49.7,41.4,30.47,ESE,109,3.0,4.0,73,0.00,,,0.00,Wunderground v.1.15,2013-04-22 16:02:00,
2013-04-22 09:07:00,49.9,41.6,30.47,NNE,12,3.0,7.0,73,0.00,,,0.00,Wunderground v.1.15,2013-04-22 16:07:00,
2013-04-22 09:13:00,49.7,41.7,30.47,NE,56,4.0,5.0,74,0.00,,,0.00,Wunderground v.1.15,2013-04-22 16:13:00,
2013-04-22 09:18:00,49.9,41.9,30.47,ENE,75,4.0,5.0,74,0.00,,,0.00,Wunderground v.1.15,2013-04-22 16:18:00,
2013-04-22 09:23:00,49.9,41.6,30.47,NE,41,3.0,6.0,73,0.00,,,0.00,Wunderground v.1.15,2013-04-22 16:23:00,
2013-04-22 09:29:00,49.6,42.0,30.48,NNE,23,5.0,7.0,75,0.00,,,0.00,Wunderground v.1.15,2013-04-22 16:29:00,
2013-04-22 09:34:00,49.9,41.9,30.48,ENE,61,6.0,7.0,74,0.00,,,0.00,Wunderground v.1.15,2013-04-22 16:34:00,
2013-04-22 09:39:00,50.4,41.7,30.47,North,5,4.0,7.0,72,0.00,,,0.00,Wunderground v.1.15,2013-04-22 16:39:00,
2013-04-22 09:45:00,51.5,42.8,30.47,North,360,4.0,9.0,72,0.00,,,0.00,Wunderground v.1.15,2013-04-22 16:45:00,
2013-04-22 09:50:00,52.2,42.0,30.47,East,83,3.0,3.0,68,0.00,,,0.00,Wunderground v.1.15,2013-04-22 16:50:00,
2013-04-22 09:55:00,52.3,42.4,30.47,ENE,71,2.0,5.0,69,0.00,,,0.00,Wunderground v.1.15,2013-04-22 16:55:00,
2013-04-22 10:01:00,52.8,42.9,30.47,NE,46,3.0,6.0,69,0.00,,,0.00,Wunderground v.1.15,2013-04-22 17:01:00,
2013-04-22 10:06:00,53.2,42.9,30.47,NE,39,3.0,6.0,68,0.00,,,0.00,Wunderground v.1.15,2013-04-22 17:06:00,
2013-04-22 10:11:00,53.0,42.3,30.48,ENE,74,3.0,4.0,67,0.00,,,0.00,Wunderground v.1.15,2013-04-22 17:11:00,
2013-04-22 10:17:00,52.6,41.9,30.47,ESE,107,3.0,6.0,67,0.00,,,0.00,Wunderground v.1.15,2013-04-22 17:17:00,
2013-04-22 10:22:00,52.8,41.7,30.47,North,360,3.0,7.0,66,0.00,,,0.00,Wunderground v.1.15,2013-04-22 17:22:00,
2013-04-22 10:27:00,53.0,42.3,30.47,ENE,75,4.0,7.0,67,0.00,,,0.00,Wunderground v.1.15,2013-04-22 17:27:00,
2013-04-22 10:32:00,53.4,42.7,30.47,ENE,60,4.0,5.0,67,0.00,,,0.00,Wunderground v.1.15,2013-04-22 17:32:00,
2013-04-22 10:38:00,53.3,41.8,30.47,ENE,69,4.0,7.0,65,0.00,,,0.00,Wunderground v.1.15,2013-04-22 17:38:00,
2013-04-22 10:43:00,53.5,42.8,30.47,ESE,103,5.0,7.0,67,0.00,,,0.00,Wunderground v.1.15,2013-04-22 17:43:00,
2013-04-22 10:49:00,53.9,42.4,30.47,ENE,63,5.0,7.0,65,0.00,,,0.00,Wunderground v.1.15,2013-04-22 17:49:00,
2013-04-22 10:54:00,54.3,43.6,30.47,NE,45,5.0,5.0,67,0.00,,,0.00,Wunderground v.1.15,2013-04-22 17:54:00,
2013-04-22 10:59:00,54.3,41.6,30.47,NE,40,5.0,9.0,62,0.00,,,0.00,Wunderground v.1.15,2013-04-22 17:59:00,
2013-04-22 11:05:00,54.3,42.0,30.47,NE,55,5.0,6.0,63,0.00,,,0.00,Wunderground v.1.15,2013-04-22 18:05:00,
2013-04-22 11:10:00,54.4,41.2,30.47,ENE,62,5.0,5.0,61,0.00,,,0.00,Wunderground v.1.15,2013-04-22 18:10:00,
2013-04-22 11:15:00,54.3,41.1,30.47,East,95,6.0,8.0,61,0.00,,,0.00,Wunderground v.1.15,2013-04-22 18:15:00,
2013-04-22 11:20:00,54.5,41.3,30.47,NE,55,6.0,6.0,61,0.00,,,0.00,Wunderground v.1.15,2013-04-22 18:20:00,
2013-04-22 11:26:00,55.0,41.8,30.47,East,98,5.0,6.0,61,0.00,,,0.00,Wunderground v.1.15,2013-04-22 18:26:00,
2013-04-22 11:31:00,55.1,42.3,30.47,NNE,30,5.0,5.0,62,0.00,,,0.00,Wunderground v.1.15,2013-04-22 18:31:00,
2013-04-22 11:37:00,55.6,42.4,30.47,NE,49,5.0,6.0,61,0.00,,,0.00,Wunderground v.1.15,2013-04-22 18:37:00,
2013-04-22 11:42:00,55.9,42.6,30.47,NNE,17,5.0,7.0,61,0.00,,,0.00,Wunderground v.1.15,2013-04-22 18:42:00,
2013-04-22 11:47:00,55.9,41.3,30.47,NE,55,5.0,8.0,58,0.00,,,0.00,Wunderground v.1.15,2013-04-22 18:47:00,
2013-04-22 11:53:00,55.9,40.9,30.47,ENE,58,5.0,7.0,57,0.00,,,0.00,Wunderground v.1.15,2013-04-22 18:53:00,
2013-04-22 11:58:00,55.9,41.8,30.47,ENE,61,6.0,9.0,59,0.00,,,0.00,Wunderground v.1.15,2013-04-22 18:58:00,
2013-04-22 12:03:00,56.3,41.7,30.47,NNE,32,6.0,7.0,58,0.00,,,0.00,Wunderground v.1.15,2013-04-22 19:03:00,
2013-04-22 12:09:00,56.8,39.8,30.47,ENE,74,5.0,7.0,53,0.00,,,0.00,Wunderground v.1.15,2013-04-22 19:09:00,
2013-04-22 12:14:00,56.8,38.9,30.46,ENE,58,5.0,7.0,51,0.00,,,0.00,Wunderground v.1.15,2013-04-22 19:14:00,
2013-04-22 12:20:00,57.2,41.6,30.46,NE,35,4.0,4.0,56,0.00,,,0.00,Wunderground v.1.15,2013-04-22 19:20:00,
2013-04-22 12:25:00,57.6,42.0,30.46,NNE,30,4.0,10.0,56,0.00,,,0.00,Wunderground v.1.15,2013-04-22 19:25:00,
2013-04-22 12:31:00,58.1,41.5,30.46,ENE,62,5.0,5.0,54,0.00,,,0.00,Wunderground v.1.15,2013-04-22 19:31:00,
2013-04-22 12:36:00,58.3,40.7,30.46,East,88,4.0,6.0,52,0.00,,,0.00,Wunderground v.1.15,2013-04-22 19:36:00,
2013-04-22 12:41:00,58.5,39.4,30.45,ESE,104,4.0,4.0,49,0.00,,,0.00,Wunderground v.1.15,2013-04-22 19:41:00,
2013-04-22 12:46:00,58.9,40.8,30.45,ENE,72,4.0,7.0,51,0.00,,,0.00,Wunderground v.1.15,2013-04-22 19:46:00,
2013-04-22 12:52:00,59.0,40.4,30.45,NNE,24,4.0,4.0,50,0.00,,,0.00,Wunderground v.1.15,2013-04-22 19:52:00,
2013-04-22 12:57:00,59.4,40.2,30.45,ENE,70,4.0,9.0,49,0.00,,,0.00,Wunderground v.1.15,2013-04-22 19:57:00,
2013-04-22 13:02:00,59.5,41.9,30.45,ENE,72,4.0,10.0,52,0.00,,,0.00,Wunderground v.1.15,2013-04-22 20:02:00,
2013-04-22 13:08:00,59.7,40.0,30.44,NNW,346,5.0,10.0,48,0.00,,,0.00,Wunderground v.1.15,2013-04-22 20:08:00,
2013-04-22 13:13:00,60.2,39.3,30.44,ENE,58,4.0,10.0,46,0.00,,,0.00,Wunderground v.1.15,2013-04-22 20:13:00,
2013-04-22 13:18:00,60.4,37.8,30.44,NE,52,4.0,10.0,43,0.00,,,0.00,Wunderground v.1.15,2013-04-22 20:18:00,
2013-04-22 13:24:00,60.7,37.5,30.43,NNE,32,3.0,10.0,42,0.00,,,0.00,Wunderground v.1.15,2013-04-22 20:24:00,
2013-04-22 13:29:00,60.3,35.9,30.43,NNW,336,4.0,10.0,40,0.00,,,0.00,Wunderground v.1.15,2013-04-22 20:29:00,
2013-04-22 13:34:00,60.7,37.5,30.43,North,11,4.0,10.0,42,0.00,,,0.00,Wunderground v.1.15,2013-04-22 20:34:00,
2013-04-22 13:40:00,60.7,36.8,30.43,ENE,67,5.0,10.0,41,0.00,,,0.00,Wunderground v.1.15,2013-04-22 20:40:00,
2013-04-22 13:45:00,60.5,34.7,30.43,NNE,18,5.0,10.0,38,0.00,,,0.00,Wunderground v.1.15,2013-04-22 20:45:00,
2013-04-22 13:50:00,60.9,37.6,30.43,NNE,28,5.0,10.0,42,0.00,,,0.00,Wunderground v.1.15,2013-04-22 20:50:00,
2013-04-22 13:56:00,61.1,36.6,30.42,North,5,5.0,10.0,40,0.00,,,0.00,Wunderground v.1.15,2013-04-22 20:56:00,
2013-04-22 14:01:00,61.9,39.1,30.42,ENE,61,5.0,7.0,43,0.00,,,0.00,Wunderground v.1.15,2013-04-22 21:01:00,
2013-04-22 14:06:00,62.2,37.6,30.42,ENE,57,5.0,10.0,40,0.00,,,0.00,Wunderground v.1.15,2013-04-22 21:06:00,
2013-04-22 14:12:00,62.1,36.8,30.42,NE,40,4.0,10.0,39,0.00,,,0.00,Wunderground v.1.15,2013-04-22 21:12:00,
2013-04-22 14:17:00,62.2,36.9,30.42,NNE,14,3.0,10.0,39,0.00,,,0.00,Wunderground v.1.15,2013-04-22 21:17:00,
2013-04-22 14:22:00,62.5,38.5,30.42,ENE,71,3.0,10.0,41,0.00,,,0.00,Wunderground v.1.15,2013-04-22 21:22:00,
2013-04-22 14:28:00,62.7,36.0,30.41,SSE,155,4.0,10.0,37,0.00,,,0.00,Wunderground v.1.15,2013-04-22 21:28:00,
2013-04-22 14:33:00,63.6,38.8,30.42,North,360,2.0,10.0,40,0.00,,,0.00,Wunderground v.1.15,2013-04-22 21:33:00,
2013-04-22 14:38:00,64.2,36.7,30.42,NE,48,3.0,10.0,36,0.00,,,0.00,Wunderground v.1.15,2013-04-22 21:38:00,
2013-04-22 14:44:00,63.4,36.0,30.42,NNE,32,4.0,10.0,36,0.00,,,0.00,Wunderground v.1.15,2013-04-22 21:44:00,
2013-04-22 14:49:00,63.5,37.4,30.42,NW,325,3.0,10.0,38,0.00,,,0.00,Wunderground v.1.15,2013-04-22 21:49:00,
2013-04-22 14:54:00,63.8,37.7,30.41,North,355,3.0,10.0,38,0.00,,,0.00,Wunderground v.1.15,2013-04-22 21:54:00,
2013-04-22 15:00:00,64.5,37.6,30.41,NW,320,3.0,10.0,37,0.00,,,0.00,Wunderground v.1.15,2013-04-22 22:00:00,
2013-04-22 15:05:00,65.0,38.1,30.41,North,355,3.0,10.0,37,0.00,,,0.00,Wunderground v.1.15,2013-04-22 22:05:00,
2013-04-22 15:10:00,64.4,37.5,30.41,NE,54,3.0,10.0,37,0.00,,,0.00,Wunderground v.1.15,2013-04-22 22:10:00,
2013-04-22 15:16:00,63.9,38.4,30.41,NE,56,4.0,10.0,39,0.00,,,0.00,Wunderground v.1.15,2013-04-22 22:16:00,
2013-04-22 15:21:00,63.6,36.8,30.41,NE,34,4.0,10.0,37,0.00,,,0.00,Wunderground v.1.15,2013-04-22 22:21:00,
2013-04-22 15:26:00,63.1,37.7,30.41,NNW,338,5.0,10.0,39,0.00,,,0.00,Wunderground v.1.15,2013-04-22 22:26:00,
2013-04-22 15:32:00,63.4,36.7,30.41,NE,34,5.0,10.0,37,0.00,,,0.00,Wunderground v.1.15,2013-04-22 22:32:00,
2013-04-22 15:37:00,63.4,38.0,30.41,NNW,348,5.0,10.0,39,0.00,,,0.00,Wunderground v.1.15,2013-04-22 22:37:00,
2013-04-22 15:42:00,63.6,38.2,30.41,North,5,6.0,10.0,39,0.00,,,0.00,Wunderground v.1.15,2013-04-22 22:42:00,
2013-04-22 15:48:00,64.1,38.0,30.40,North,5,6.0,10.0,38,0.00,,,0.00,Wunderground v.1.15,2013-04-22 22:48:00,
2013-04-22 15:53:00,64.2,38.0,30.40,NNW,329,5.0,10.0,38,0.00,,,0.00,Wunderground v.1.15,2013-04-22 22:53:00,
2013-04-22 15:58:00,64.6,37.7,30.40,ENE,59,6.0,10.0,37,0.00,,,0.00,Wunderground v.1.15,2013-04-22 22:58:00,
2013-04-22 16:03:00,64.2,38.7,30.40,NNE,22,5.0,10.0,39,0.00,,,0.00,Wunderground v.1.15,2013-04-22 23:03:00,
2013-04-22 16:09:00,64.2,40.0,30.40,NNW,346,3.0,10.0,41,0.00,,,0.00,Wunderground v.1.15,2013-04-22 23:09:00,
2013-04-22 16:14:00,64.2,37.4,30.40,NNE,21,5.0,12.0,37,0.00,,,0.00,Wunderground v.1.15,2013-04-22 23:14:00,
2013-04-22 16:20:00,64.1,36.6,30.39,North,360,6.0,6.0,36,0.00,,,0.00,Wunderground v.1.15,2013-04-22 23:20:00,
2013-04-22 16:25:00,64.1,39.9,30.40,NNE,32,4.0,11.0,41,0.00,,,0.00,Wunderground v.1.15,2013-04-22 23:25:00,
2013-04-22 16:30:00,63.8,37.7,30.39,NNW,331,5.0,10.0,38,0.00,,,0.00,Wunderground v.1.15,2013-04-22 23:30:00,
2013-04-22 16:36:00,63.7,36.2,30.39,NNW,327,6.0,10.0,36,0.00,,,0.00,Wunderground v.1.15,2013-04-22 23:36:00,
2013-04-22 16:41:00,64.3,36.8,30.39,NNE,28,5.0,10.0,36,0.00,,,0.00,Wunderground v.1.15,2013-04-22 23:41:00,
2013-04-22 16:46:00,64.6,37.7,30.39,NNE,29,4.0,10.0,37,0.00,,,0.00,Wunderground v.1.15,2013-04-22 23:46:00,
2013-04-22 16:52:00,64.6,37.0,30.39,North,360,5.0,10.0,36,0.00,,,0.00,Wunderground v.1.15,2013-04-22 23:52:00,
2013-04-22 16:57:00,64.6,37.0,30.38,North,360,5.0,10.0,36,0.00,,,0.00,Wunderground v.1.15,2013-04-22 23:57:00,
2013-04-22 17:02:00,64.5,36.2,30.38,WNW,303,6.0,10.0,35,0.00,,,0.00,Wunderground v.1.15,2013-04-23 00:02:00,
2013-04-22 17:08:00,64.4,38.2,30.38,NNE,30,6.0,10.0,38,0.00,,,0.00,Wunderground v.1.15,2013-04-23 00:08:00,
2013-04-22 17:13:00,64.1,37.3,30.38,NNW,339,4.0,10.0,37,0.00,,,0.00,Wunderground v.1.15,2013-04-23 00:13:00,
2013-04-22 17:18:00,64.2,36.0,30.38,NNW,338,5.0,10.0,35,0.00,,,0.00,Wunderground v.1.15,2013-04-23 00:18:00,
2013-04-22 17:24:00,64.3,36.8,30.38,NNE,24,6.0,11.0,36,0.00,,,0.00,Wunderground v.1.15,2013-04-23 00:24:00,
2013-04-22 17:29:00,64.2,38.0,30.38,NNW,337,5.0,11.0,38,0.00,,,0.00,Wunderground v.1.15,2013-04-23 00:29:00,
2013-04-22 17:34:00,64.4,36.8,30.38,North,355,5.0,10.0,36,0.00,,,0.00,Wunderground v.1.15,2013-04-23 00:34:00,
2013-04-22 17:40:00,64.6,38.4,30.38,North,10,6.0,10.0,38,0.00,,,0.00,Wunderground v.1.15,2013-04-23 00:40:00,
2013-04-22 17:45:00,64.6,37.7,30.38,NNW,330,6.0,12.0,37,0.00,,,0.00,Wunderground v.1.15,2013-04-23 00:45:00,
2013-04-22 17:51:00,64.6,38.4,30.38,NNW,342,6.0,10.0,38,0.00,,,0.00,Wunderground v.1.15,2013-04-23 00:51:00,
2013-04-22 17:56:00,64.5,36.9,30.38,NNE,19,4.0,10.0,36,0.00,,,0.00,Wunderground v.1.15,2013-04-23 00:56:00,
2013-04-22 18:01:00,63.7,36.9,30.38,North,360,6.0,10.0,37,0.00,,,0.00,Wunderground v.1.15,2013-04-23 01:01:00,
2013-04-22 18:07:00,63.4,37.3,30.38,NNW,333,7.0,10.0,38,0.00,,,0.00,Wunderground v.1.15,2013-04-23 01:07:00,
2013-04-22 18:12:00,63.5,36.7,30.39,NNW,340,7.0,9.0,37,0.00,,,0.00,Wunderground v.1.15,2013-04-23 01:12:00,
2013-04-22 18:18:00,63.5,36.7,30.39,NW,321,8.0,10.0,37,0.00,,,0.00,Wunderground v.1.15,2013-04-23 01:18:00,
2013-04-22 18:23:00,63.2,36.5,30.39,NNW,346,8.0,9.0,37,0.00,,,0.00,Wunderground v.1.15,2013-04-23 01:23:00,
2013-04-22 18:28:00,62.9,36.2,30.39,NW,325,7.0,10.0,37,0.00,,,0.00,Wunderground v.1.15,2013-04-23 01:28:00,
2013-04-22 18:34:00,62.9,36.2,30.39,North,355,7.0,11.0,37,0.00,,,0.00,Wunderground v.1.15,2013-04-23 01:34:00,
2013-04-22 18:39:00,62.7,36.0,30.38,NW,325,7.0,11.0,37,0.00,,,0.00,Wunderground v.1.15,2013-04-23 01:39:00,
2013-04-22 18:44:00,62.4,36.4,30.38,North,350,6.0,8.0,38,0.00,,,0.00,Wunderground v.1.15,2013-04-23 01:44:00,
2013-04-22 18:50:00,61.8,35.9,30.39,North,5,5.0,6.0,38,0.00,,,0.00,Wunderground v.1.15,2013-04-23 01:50:00,
2013-04-22 18:55:00,61.3,35.5,30.38,NNE,33,6.0,8.0,38,0.00,,,0.00,Wunderground v.1.15,2013-04-23 01:55:00,
2013-04-22 19:00:00,60.9,35.1,30.39,North,349,6.0,9.0,38,0.00,,,0.00,Wunderground v.1.15,2013-04-23 02:00:00,
2013-04-22 19:06:00,60.5,35.4,30.39,NNE,15,5.0,13.0,39,0.00,,,0.00,Wunderground v.1.15,2013-04-23 02:06:00,
2013-04-22 19:11:00,60.3,36.5,30.39,North,5,5.0,13.0,41,0.00,,,0.00,Wunderground v.1.15,2013-04-23 02:11:00,
2013-04-22 19:16:00,60.0,36.2,30.38,North,11,5.0,13.0,41,0.00,,,0.00,Wunderground v.1.15,2013-04-23 02:16:00,
2013-04-22 19:22:00,59.7,35.3,30.38,NE,36,4.0,13.0,40,0.00,,,0.00,Wunderground v.1.15,2013-04-23 02:22:00,
2013-04-22 19:27:00,59.4,35.1,30.38,NNE,13,4.0,13.0,40,0.00,,,0.00,Wunderground v.1.15,2013-04-23 02:27:00,
2013-04-22 19:32:00,59.0,34.1,30.38,NE,36,4.0,13.0,39,0.00,,,0.00,Wunderground v.1.15,2013-04-23 02:32:00,
2013-04-22 19:38:00,58.9,35.2,30.39,North,360,4.0,13.0,41,0.00,,,0.00,Wunderground v.1.15,2013-04-23 02:38:00,
2013-04-22 19:43:00,58.6,35.0,30.39,NNW,341,4.0,13.0,41,0.00,,,0.00,Wunderground v.1.15,2013-04-23 02:43:00,
2013-04-22 19:48:00,57.9,36.7,30.38,NNE,29,2.0,13.0,45,0.00,,,0.00,Wunderground v.1.15,2013-04-23 02:48:00,
2013-04-22 19:54:00,57.0,34.1,30.38,NNE,27,2.0,13.0,42,0.00,,,0.00,Wunderground v.1.15,2013-04-23 02:54:00,
2013-04-22 19:59:00,57.1,33.6,30.39,NNE,31,4.0,13.0,41,0.00,,,0.00,Wunderground v.1.15,2013-04-23 02:59:00,
2013-04-22 20:04:00,57.1,34.2,30.38,North,11,4.0,13.0,42,0.00,,,0.00,Wunderground v.1.15,2013-04-23 03:04:00,
2013-04-22 20:09:00,56.8,33.3,30.38,North,355,4.0,13.0,41,0.00,,,0.00,Wunderground v.1.15,2013-04-23 03:09:00,
2013-04-22 20:15:00,56.6,31.9,30.39,NNE,19,5.0,13.0,39,0.00,,,0.00,Wunderground v.1.15,2013-04-23 03:15:00,
2013-04-22 20:20:00,56.6,32.5,30.39,North,5,4.0,4.0,40,0.00,,,0.00,Wunderground v.1.15,2013-04-23 03:20:00,
2013-04-22 20:26:00,56.3,31.6,30.39,North,5,4.0,13.0,39,0.00,,,0.00,Wunderground v.1.15,2013-04-23 03:26:00,
2013-04-22 20:31:00,56.2,31.5,30.39,North,5,4.0,13.0,39,0.00,,,0.00,Wunderground v.1.15,2013-04-23 03:31:00,
2013-04-22 20:36:00,56.0,31.4,30.40,North,350,4.0,13.0,39,0.00,,,0.00,Wunderground v.1.15,2013-04-23 03:36:00,
2013-04-22 20:42:00,55.8,31.8,30.40,North,355,4.0,13.0,40,0.00,,,0.00,Wunderground v.1.15,2013-04-23 03:42:00,
2013-04-22 20:47:00,55.6,31.0,30.40,North,5,3.0,13.0,39,0.00,,,0.00,Wunderground v.1.15,2013-04-23 03:47:00,
2013-04-22 20:52:00,55.4,30.8,30.40,North,355,3.0,13.0,39,0.00,,,0.00,Wunderground v.1.15,2013-04-23 03:52:00,
2013-04-22 20:57:00,55.3,30.7,30.40,NNE,14,4.0,13.0,39,0.00,,,0.00,Wunderground v.1.15,2013-04-23 03:57:00,
2013-04-22 21:01:00,55.2,32.5,30.40,NW,323,4.0,13.0,42,0.00,,,0.00,Wunderground v.1.15,2013-04-23 04:01:00,
2013-04-22 21:02:00,55.2,32.5,30.40,NW,321,3.0,13.0,42,0.00,,,0.00,Wunderground v.1.15,2013-04-23 04:02:00,
2013-04-22 21:05:00,55.0,32.9,30.40,NW,317,3.0,13.0,43,0.00,,,0.00,Wunderground v.1.15,2013-04-23 04:05:00,
2013-04-22 21:06:00,54.9,33.4,30.41,NW,317,3.0,13.0,44,0.00,,,0.00,Wunderground v.1.15,2013-04-23 04:06:00,
2013-04-22 21:11:00,54.4,34.6,30.40,NW,317,2.0,13.0,47,0.00,,,0.00,Wunderground v.1.15,2013-04-23 04:11:00,
2013-04-22 21:12:00,54.2,34.9,30.40,NW,317,2.0,13.0,48,0.00,,,0.00,Wunderground v.1.15,2013-04-23 04:12:00,
2013-04-22 21:18:00,53.0,34.8,30.41,SW,236,1.0,13.0,50,0.00,,,0.00,Wunderground v.1.15,2013-04-23 04:18:00,
2013-04-22 21:23:00,52.2,34.6,30.41,SW,236,1.0,13.0,51,0.00,,,0.00,Wunderground v.1.15,2013-04-23 04:23:00,
2013-04-22 21:28:00,51.4,32.9,30.41,SSE,165,1.0,13.0,49,0.00,,,0.00,Wunderground v.1.15,2013-04-23 04:28:00,
2013-04-22 21:34:00,50.9,34.8,30.41,South,175,1.0,13.0,54,0.00,,,0.00,Wunderground v.1.15,2013-04-23 04:34:00,
2013-04-22 21:39:00,50.4,34.4,30.41,South,175,0.0,13.0,54,0.00,,,0.00,Wunderground v.1.15,2013-04-23 04:39:00,
2013-04-22 21:44:00,49.8,34.7,30.41,South,175,0.0,13.0,56,0.00,,,0.00,Wunderground v.1.15,2013-04-23 04:44:00,
2013-04-22 21:49:00,49.2,34.6,30.41,South,175,0.0,13.0,57,0.00,,,0.00,Wunderground v.1.15,2013-04-23 04:49:00,
2013-04-22 21:55:00,48.6,35.3,30.41,South,175,0.0,13.0,60,0.00,,,0.00,Wunderground v.1.15,2013-04-23 04:55:00,
2013-04-22 22:00:00,48.1,34.9,30.41,South,175,1.0,1.0,60,0.00,,,0.00,Wunderground v.1.15,2013-04-23 05:00:00,
2013-04-22 22:06:00,47.6,34.0,30.41,South,175,1.0,13.0,59,0.00,,,0.00,Wunderground v.1.15,2013-04-23 05:06:00,
2013-04-22 22:11:00,47.2,34.4,30.41,South,175,0.0,13.0,61,0.00,,,0.00,Wunderground v.1.15,2013-04-23 05:11:00,
2013-04-22 22:16:00,46.9,34.6,30.41,South,175,0.0,13.0,62,0.00,,,0.00,Wunderground v.1.15,2013-04-23 05:16:00,
2013-04-22 22:22:00,46.5,34.2,30.41,South,175,0.0,13.0,62,0.00,,,0.00,Wunderground v.1.15,2013-04-23 05:22:00,
2013-04-22 22:27:00,46.3,34.4,30.41,South,175,0.0,13.0,63,0.00,,,0.00,Wunderground v.1.15,2013-04-23 05:27:00,
2013-04-22 22:32:00,46.0,35.3,30.41,South,175,0.0,13.0,66,0.00,,,0.00,Wunderground v.1.15,2013-04-23 05:32:00,
2013-04-22 22:37:00,45.7,35.4,30.41,South,175,0.0,13.0,67,0.00,,,0.00,Wunderground v.1.15,2013-04-23 05:37:00,
2013-04-22 22:43:00,45.4,34.7,30.41,South,175,0.0,13.0,66,0.00,,,0.00,Wunderground v.1.15,2013-04-23 05:43:00,
2013-04-22 22:48:00,45.0,34.7,30.41,South,175,0.0,13.0,67,0.00,,,0.00,Wunderground v.1.15,2013-04-23 05:48:00,
2013-04-22 22:53:00,44.9,35.0,30.41,SSW,203,0.0,13.0,68,0.00,,,0.00,Wunderground v.1.15,2013-04-23 05:53:00,
2013-04-22 22:59:00,44.7,34.8,30.41,SSW,203,0.0,13.0,68,0.00,,,0.00,Wunderground v.1.15,2013-04-23 05:59:00,
2013-04-22 23:04:00,44.5,35.0,30.41,SSW,203,0.0,13.0,69,0.00,,,0.00,Wunderground v.1.15,2013-04-23 06:04:00,
2013-04-22 23:09:00,44.3,35.1,30.41,SSW,203,0.0,13.0,70,0.00,,,0.00,Wunderground v.1.15,2013-04-23 06:09:00,